Flag Weather past 2 weeks in Gdynia, Poland

Now
37 °F

Fog.


Feels Like: 32 °F
Forecast: 36 / 43 °F
Wind: 7 mph from Southeast

Location: Gdansk-Rebiechowo

Current Time: Nov 23, 2014 at 11:20:33 AM

Latest Report: Nov 23, 2014 at 11:00 AM


Visibility: 3 mi

Pressure: 30.42 "Hg

Humidity: 93%

Dew point: 36 °F

Location of GdyniaLocation

Historic Weather in Gdynia — Graph

°F

Gdynia temperature yesterday

Maximum temperature yesterday: 43 °F (at 11:00 AM)
Minimum temperature yesterday: 36 °F (at 11:30 PM)
Average temperature yesterday: 40 °F

Past Weeks' High & Low Weather Summary

 TemperatureHumidityPressure
High52 °F (Nov 10, 12:30 PM)100% (Nov 8, 10:00 AM)30.42 "Hg (Nov 8, 10:00 AM)
Low30 °F (Nov 8, 11:30 PM)75% (Nov 19, 12:30 AM)29.86 "Hg (Nov 16, 12:00 PM)
Average41 °F96%30.08 "Hg
* Reported Nov 8 10:00 AM — Nov 23 10:00 AM, Gdynia, Weather by CustomWeather, © 2014

Note: Actual official high and low records may vary slightly from our data, if they occured in-between our weather recording intervals... More about our weather records

Advertising

Gdynia weather history for previous 24 hours

 ConditionsComfort  
Time TempWeatherWind HumidityBarometerVisibility
10:00 AM
Nov 23
37 °FScattered clouds.7 mph93%30.42 "Hg4 mi
9:30 AM37 °FPassing clouds.5 mph93%30.42 "Hg4 mi
9:00 AM36 °FFog.6 mph100%30.39 "Hg3 mi
8:30 AM36 °FFog.3 mph100%30.42 "Hg2 mi
8:00 AM36 °FFog.5 mph100%30.39 "Hg1 mi
7:30 AM36 °FFog.3 mph100%30.42 "Hg1 mi
7:00 AM36 °FFog.3 mph100%30.39 "Hg1 mi
6:30 AM36 °FFog.2 mph100%30.39 "Hg1 mi
6:00 AM36 °FFog.5 mph100%30.39 "Hg1 mi
5:30 AM36 °FFog.3 mph100%30.39 "Hg1 mi
5:00 AM37 °FFog.3 mph93%30.39 "Hg1 mi
4:30 AM37 °FFog.2 mph93%30.39 "Hg1 mi
4:00 AM37 °FFog.2 mph100%30.39 "Hg1 mi
3:30 AM37 °FFog.3 mph100%30.36 "Hg1 mi
3:00 AM39 °FFog.2 mph100%30.39 "Hg1 mi
2:30 AM37 °FFog.2 mph100%30.39 "Hg1 mi
2:00 AM37 °FFog.2 mph100%30.39 "Hg1 mi
1:30 AM36 °FChilly.2 mph100%30.36 "Hg1 mi
1:00 AM34 °FFog.No wind100%30.36 "Hg0 mi
12:30 AM36 °FFog.No wind100%30.36 "Hg1 mi
12:00 AM36 °FChilly.1 mph100%30.36 "Hg1 mi
11:30 PM
Nov 22
36 °FFog.1 mph100%30.36 "Hg1 mi
11:00 PM37 °FFog.No wind93%30.36 "Hg1 mi
10:30 PM37 °FFog.1 mph100%30.36 "Hg1 mi
10:00 PM37 °FFog.1 mph100%30.36 "Hg1 mi
9:30 PM37 °FFog.1 mph100%30.36 "Hg2 mi
9:00 PM37 °FFog.1 mph100%30.36 "Hg2 mi
8:30 PM37 °FFog.1 mph100%30.36 "Hg2 mi
8:00 PM37 °FFog.No wind100%30.33 "Hg2 mi
7:30 PM37 °FFog.1 mph100%30.33 "Hg2 mi
7:00 PM37 °FPassing clouds.2 mph100%30.33 "Hg4 mi
6:30 PM37 °FFog.No wind93%30.33 "Hg3 mi
6:00 PM37 °FPassing clouds.No wind100%30.33 "HgN/A
5:30 PM39 °FPassing clouds.1 mph93%30.33 "HgN/A
5:00 PM39 °FPassing clouds.2 mph93%30.33 "HgN/A
4:30 PM41 °FPassing clouds.3 mph87%30.33 "HgN/A
4:00 PM41 °FPassing clouds.3 mph93%30.33 "HgN/A
3:30 PM43 °FPartly sunny.3 mph87%30.33 "Hg5 mi
3:00 PM43 °FBroken clouds.3 mph93%30.33 "Hg5 mi
2:30 PM43 °FBroken clouds.2 mph93%30.33 "HgN/A
2:00 PM43 °FPartly sunny.2 mph93%30.33 "HgN/A
1:30 PM43 °FPartly sunny.6 mph87%30.30 "HgN/A
1:00 PM43 °FPartly sunny.7 mph93%30.30 "HgN/A
12:30 PM43 °FPartly sunny.5 mph93%30.30 "Hg5 mi
12:00 PM43 °FPartly sunny.5 mph93%30.30 "Hg4 mi
11:30 AM43 °FPartly sunny.6 mph93%30.30 "Hg4 mi
11:00 AM43 °FFog.7 mph93%30.30 "Hg3 mi
Weather by CustomWeather, © 2014

See weather overviewHow to use our weather pages